Regional Weather Roundup
Issued by NWS

Home | Current Version | Previous Version | Graphics & Text | Print | Product List | Glossary On
Versions: 1 2 3 4 5 6 7 8 9 10 11 12 13 14 15 16 17 18 19 20 21 22 23 24 25 26 27 28 29 30 31 32 33 34 35 36 37 38 39 40 41 42 43 44 45 46 47 48 49 50
000
ASUS45 KABQ 300710
RWRNM
NEW MEXICO REGIONAL WEATHER ROUNDUP
NATIONAL WEATHER SERVICE ALBUQUERQUE NM
100 AM MDT SUN AUG 30 2015

NOTE: "FAIR" MEANS FEW OR NO CLOUDS BELOW 12,000 FEET AGL WITH NO
       SIGNIFICANT WEATHER OR OBSTRUCTIONS TO VISION.

      THIS PRODUCT IS RELEASED AS TWO VERSIONS.  ONE VERSION NEAR
      THE TOP OF THE HOUR CONTAINING PRELIMINARY DATA FROM ALBUQUERQUE
      AND OTHER STATIONS.  A FINAL VERSION WITH ADDITIONAL DATA IS
      ISSUED ABOUT 10 MINUTES AFTER THE HOUR.

NMZ501-503-504-510>518-300800-
NORTHWEST PLATEAU/NORTHCENTRAL MOUNTAINS

CITY           SKY/WX    TMP DP  RH WIND       PRES   REMARKS
FARMINGTON     CLEAR     72  44  36 NE9       30.17R
LOS ALAMOS     CLEAR     64  47  53 S7        30.38F
SANTA FE       CLEAR     63  49  60 SE5       30.32R
TAOS           PTCLDY    54  36  50 CALM      30.39R
ANGEL FIRE     FAIR      39  38  97 CALM      30.47F

$$
NMZ402-403-502-505>509-300800-
WESTCENTRAL MOUNTAINS/SOUTHWEST MOUNTAINS

CITY           SKY/WX    TMP DP  RH WIND       PRES   REMARKS
GALLUP         PTCLDY    67  46  47 S8        30.27F
GRANTS         CLEAR     59  50  73 S6        30.32S
SILVER CITY    LGT RAIN  66  57  72 N8        30.28R

$$
NMZ407-409-411-412-300800-
SOUTHERN DESERTS

CITY           SKY/WX    TMP DP  RH WIND       PRES   REMARKS
DEMING         CLOUDY    74  57  55 W10       30.17R
LAS CRUCES     PTCLDY    74  54  49 S6        30.18S
HOLLOMAN AFB   CLEAR     70  58  65 VRB2      30.14R
ALAMOGORDO     CLEAR     68  57  68 N5        30.16R
T OR C         MOCLDY    76  52  43 SW5       30.19S

$$
NMZ519>523-300800-
CENTRAL VALLEYS/CENTRAL HIGHLANDS

CITY           SKY/WX    TMP DP  RH WIND       PRES   REMARKS
ALBUQUERQUE    PTCLDY    72  49  44 W5        30.25R
DOUBLE EAGLE   CLEAR     62  47  58 SW7       30.28S
MORIARTY ARPT  FAIR      52  47  83 CALM      30.33S
CLINES CORNERS CLEAR     57  52  83 S8        30.36S
BELEN          FAIR      66  50  55 S3        30.23S
SOCORRO        FAIR      70  52  52 S5        30.20S

$$
NMZ524>526-539-540-300800-
SOUTHCENTRAL MOUNTAINS

CITY           SKY/WX    TMP DP  RH WIND       PRES   REMARKS
RUIDOSO        CLEAR     61  52  72 MISG      30.37S

$$
NMZ527>531-300800-
NORTHEAST HIGHLANDS/NORTHEAST PLAINS

CITY           SKY/WX    TMP DP  RH WIND       PRES   REMARKS
LAS VEGAS      CLEAR     54  47  77 CALM      30.36F
RATON          PTCLDY    60  48  64 CALM      30.31F
CLAYTON        CLEAR     62  48  60 SW7       30.23S

$$
NMZ532>537-300800-
EASTCENTRAL PLAINS

CITY           SKY/WX    TMP DP  RH WIND       PRES   REMARKS
TUCUMCARI      CLEAR     63  54  72 CALM      30.17S
CANNON AFB     CLEAR     60  54  78 NE3       30.19F
CLOVIS AIRPORT CLEAR     63  55  77 NW3       30.20F

$$
NMZ028-029-538-300800-
SOUTHEAST PLAINS

CITY           SKY/WX    TMP DP  RH WIND       PRES   REMARKS
ROSWELL        CLEAR     67  60  78 CALM      30.16R
ARTESIA        CLEAR     70  61  73 CALM      30.16S
CARLSBAD       CLEAR     72  53  51 SW3       30.13
HOBBS            N/A     63  63 100 CALM      30.16S


$$



USA.gov is the U.S. government's official web portal to all federal, state and local government web resources and services.